TimeEST,TemperatureF,Dew PointF,Humidity,Sea Level PressureIn,VisibilityMPH,Wind Direction,Wind SpeedMPH,Gust SpeedMPH,PrecipitationIn,Events,Conditions,WindDirDegrees,DateUTC
12:54 AM,30.9,28.9,92,29.81,10.0,West,5.8,-,N/A,,Clear,280,2011-11-11 05:54:00
1:54 AM,30.9,28.9,92,29.81,10.0,West,3.5,-,N/A,,Clear,280,2011-11-11 06:54:00
2:54 AM,30.9,28.9,92,29.81,10.0,West,6.9,-,N/A,,Scattered Clouds,270,2011-11-11 07:54:00
3:13 AM,30.2,28.4,93,29.79,10.0,West,5.8,-,N/A,,Mostly Cloudy,280,2011-11-11 08:13:00
3:37 AM,30.2,28.4,93,29.79,10.0,West,6.9,-,N/A,,Scattered Clouds,270,2011-11-11 08:37:00
3:54 AM,30.9,28.0,89,29.82,10.0,WNW,5.8,-,N/A,,Clear,290,2011-11-11 08:54:00
4:54 AM,30.0,28.0,92,29.83,10.0,NW,3.5,-,N/A,,Clear,320,2011-11-11 09:54:00
5:54 AM,28.9,27.0,92,29.84,10.0,Calm,Calm,-,N/A,,Partly Cloudy,0,2011-11-11 10:54:00
6:54 AM,28.9,27.0,92,29.85,10.0,WSW,4.6,-,N/A,,Mostly Cloudy,250,2011-11-11 11:54:00
7:54 AM,30.9,28.0,89,29.87,10.0,West,5.8,-,N/A,,Scattered Clouds,260,2011-11-11 12:54:00
8:54 AM,33.1,30.0,89,29.86,10.0,West,4.6,-,N/A,,Scattered Clouds,270,2011-11-11 13:54:00
9:54 AM,35.1,30.0,82,29.86,10.0,West,8.1,-,N/A,,Overcast,260,2011-11-11 14:54:00
10:54 AM,36.0,30.0,79,29.87,10.0,WSW,8.1,-,N/A,,Overcast,240,2011-11-11 15:54:00
11:54 AM,37.0,30.0,76,29.86,10.0,SW,8.1,-,N/A,,Overcast,230,2011-11-11 16:54:00
12:37 PM,37.4,30.2,75,29.82,10.0,West,8.1,-,0.00,,Overcast,280,2011-11-11 17:37:00
12:54 PM,37.9,30.0,73,29.84,10.0,Variable,5.8,-,0.00,,Overcast,0,2011-11-11 17:54:00
1:54 PM,39.0,25.0,57,29.83,10.0,West,12.7,20.7,N/A,,Overcast,270,2011-11-11 18:54:00
2:54 PM,37.0,28.9,73,29.84,10.0,WSW,9.2,19.6,N/A,,Overcast,240,2011-11-11 19:54:00
3:54 PM,37.9,27.0,65,29.82,10.0,West,4.6,-,N/A,,Mostly Cloudy,260,2011-11-11 20:54:00
4:54 PM,37.9,23.0,55,29.82,10.0,SW,9.2,-,N/A,,Partly Cloudy,230,2011-11-11 21:54:00
5:54 PM,36.0,24.1,62,29.80,10.0,SSW,3.5,-,N/A,,Mostly Cloudy,210,2011-11-11 22:54:00
6:54 PM,36.0,25.0,64,29.81,10.0,SW,4.6,-,N/A,,Overcast,220,2011-11-11 23:54:00
7:54 PM,35.1,26.1,70,29.79,10.0,South,5.8,-,N/A,,Overcast,180,2011-11-12 00:54:00
8:54 PM,36.0,26.1,67,29.77,10.0,South,8.1,-,N/A,,Overcast,190,2011-11-12 01:54:00
9:54 PM,37.0,26.1,65,29.75,10.0,SSW,9.2,-,N/A,,Mostly Cloudy,200,2011-11-12 02:54:00
10:54 PM,37.9,28.0,68,29.75,10.0,SSW,13.8,19.6,N/A,,Overcast,210,2011-11-12 03:54:00
11:54 PM,37.0,27.0,67,29.72,10.0,SSW,9.2,-,N/A,,Scattered Clouds,200,2011-11-12 04:54:00